Timeline UpdatesTrip UpdatesNews PostsPvt PostsTravel TipsAdmin PostsConv PostsFollowed PostsChat RequestsBlog PostsPNR Posts

Disclaimer
Search
 
 
Sat Apr 19, 2014 21:20:14 ISTHomeTrainsΣChainsAtlasPNRForumGalleryNewsFAQTripsMembersLoginFeedback
No Recent News for this Train
Other Trains in the News **new
Latest...
.
Sat Feb 02, 2013 (04:10PM)
⇐ Return Journey: Train# 51187

51188/Katni Bhusaval Passenger (UnReserved)

Oct 05 2013 (11:32PM)
Change Departure Station:
Change Arrival Station:
Post a Train Travel TipPost a Train Travel Tip **new
Post a Comment/Question/Picture/VideoPost a Comment/Question/Picture/Video
Pantry/Catering
???
RSA - Rake Sharing
Rake/Coach Composition
Loco
KTE-ET: KTE/ET WDM-3A ET-BSL: BSL/ET WAP-4
News    PNR    Forum    Time-Table    Availability    Fare Chart    Map    Arr/Dep History    Trips    Gallery    ΣChains    X/O    Timeline    
Travel Time: 7h 57m    27 halts    Distance: 224 km    Avg Speed: 28 km/hr
Type: Passenger
Zone: CR/Central
Departs @ 09:03 (Avg 3h 12m late)
Platform# ???
SMTWTFS
Palasner/PAL 
Arrives @ 17:00 (Avg 1h 57m late)
Platform# 6
SMTWTFS
Bhusaval Junction/BSL 

27 halts. 28 intermediate Stations between Palasner and Bhusaval Junction

Show ALL intermediate Stations  Show Old Time-Table

#CodeStation NameX/OArrivesAvgDepartsAvgHaltPFDay#KmSpeedElevZoneAddress
1KTEKatni Junction (6)  -22:20+1:0451-419.031387mWCRKatni, Madhya Pradesh
2MDRRMadhavnagar Road (2)X  22:30+1:1222:31+1:121m--1-413.948398mWCRMadhavnagar, Madhya Pradesh
3NWRNiwar (2)X  22:41+1:1222:42+1:231m--1-405.952412mWCRPipraundh, Madhya Pradesh
4SNRRSansarpur (2)X  22:51+1:2222:52+1:221m--1-398.159436mWCRNational Highway 7, Madhya Pradesh
5SBDSleemanabad Road (2)X  22:59+1:0923:00+1:111m--1-391.257434mWCRSleemanabad, Madhya Pradesh
6DDCEDundi (2)X  23:10+1:2323:11+1:281m--1-381.760415mWCRDundi, Madhya Pradesh
7SHRSihora Road (2)X  23:26+1:2223:28+1:232m--1-366.861388mWCRJabalpur, Madhya Pradesh
8GSPRGosalpur (2)X  23:39+1:2723:40+1:281m--1-355.757396mWCRJabalpur, Madhya Pradesh
9DOEDeori (2)  23:51+1:3023:52+1:311m--1-345.248392mWCRJabalpur, Madhya Pradesh
10ADTLAdhartal (2)X  00:03+1:2900:04+1:351m--2-336.430393mWCRJabalpur, Madhya Pradesh
11JBPJabalpur Junction (7)X  00:20+1:2100:30+1:3510m12-328.453416mWCRJabalpur, Madhya Pradesh
12MMLMadan Mahal (3)  00:34+1:4900:36+1:492m12-324.956428mWCRJabalpur, Madhya Pradesh
13BRGTBheraghat (2)  00:50+1:4900:51+1:511m--2-311.861389mWCRBheraghat, Madhya Pradesh
14BHTNBhitoni (2)X  01:04+1:5001:05+1:551m--2-298.658377mWCRJabalpur, Madhya Pradesh
15BMRBikrampur (2)  01:17+1:5401:18+2:001m--2-287.065353mWCRBikrampur Dist Narsingpur., Madhya Pradesh
16SRIDShridham (3)XO  01:29+1:5301:31+2:002m32-275.254373mWCRShridham, Madhya Pradesh
17KKBKarak Bel (2)  01:48+2:0301:49+2:041m--2-259.829375mWCRKarak Bel, Madhya Pradesh
18BELDBelkhera (2)O  01:58+2:0101:59+2:071m--2-255.533367mWCRState Highway 22, Madhya Pradesh
19GPCGhatpindrai (2)  02:09+2:0602:10+2:091m--2-250.035366mWCRGhatpindra, Madhya Pradesh
20NUNarsinghpur (2)X  02:20+2:0102:22+2:102m22-244.270365mWCRNarsimhapur, Madhya Pradesh
21KYKareli (2)X  02:36+2:1402:37+2:171m22-227.845361mWCRKareli, Madhya Pradesh
22KFYKarapgaon (2)XO  02:48+2:1602:49+2:161m--2-219.545364mWCRNational Highway 26, Madhya Pradesh
23BNEBohani (2)X  02:58+2:1602:59+2:251m--2-212.778361mWCRNarsinghpur, Madhya Pradesh
24GARGadarwara (2)X  03:09+2:1103:10+2:181m22-199.856352mWCRNarsinghpur, Madhya Pradesh
25SCKRSalichauka Road (2)X  03:25+2:3203:26+2:381m--2-185.961355mWCRGadarwara, Madhya Pradesh
26JHTJunehta (2)X  03:36+2:3703:37+2:371m--2-175.855353mWCRState Highway 22, Madhya Pradesh
27BKHBankhedi (2)X  03:44+2:3703:46+2:402m--2-169.467351mWCRBankheri, Madhya Pradesh
28PPIPipariya (3)X  04:03+2:2904:05+2:452m32-150.440338mWCRPiparia, Madhya Pradesh
29SXFSobhapur (2)X  04:18+2:5004:19+2:501m--2-141.845338mWCRState Highway 22, Madhya Pradesh
30SGPSohagpur (2)X  04:31+2:5004:33+2:532m--2-132.743340mWCRSohagpur, Madhya Pradesh
31GMDGuramkhedi (2)  04:47+2:4804:48+2:521m--2-122.749337mWCRSohagpur, Madhya Pradesh
32BGTABagra Tawa (2)O  05:04+2:4805:05+3:021m--2-109.629338mWCRBagra Tawa, Madhya Pradesh
33SQLSontalai (2)X  05:19+2:5905:20+3:011m--2-102.827329mWCRItarsi, Madhya Pradesh
34GROGurra (2)X  05:40+2:5205:41+3:031m--2-93.816327mWCRItarsi, Madhya Pradesh
35ETItarsi Junction (7)X  06:20+2:3506:45+2:5325m--2-83.257329mWCRItarsi 461111, Madhya Pradesh
36DRADularia (2)  06:58+3:1906:59+3:241m--2-71.042318mWCRItarsi, Madhya Pradesh
37KTZKhutwansa (2)X  07:07+3:2007:08+3:201m--2-65.349325mWCRSH 15, Madhya Pradesh
38DKIDharamkundi (2)O  07:17+3:2007:18+3:211m--2-58.031314mWCRSH 15, Madhya Pradesh
39BPFBanapura (2)  07:34+3:1007:35+3:141m--2-49.849314mWCRBanapura, Madhya Pradesh
40BIFBhaironpur (2)O  07:44+3:1807:45+3:191m--2-42.449322mWCRSH 15, Madhya Pradesh
41PGLPagdhal (2)X  07:54+3:1807:55+3:271m--2-35.141317mWCRPagdhal, Madhya Pradesh
42CGOChhidgaon (2)X  08:01+3:1508:02+3:151m--2-31.026309mWCRHarda, Madhya Pradesh
43TBNTimarni (2)  08:24+3:1508:25+3:161m--2-21.547308mWCRTimarni, Madhya Pradesh
44CRKCharkhera (2)O  08:34+3:1408:35+3:171m--2-14.423298mWCRBarkalan, Madhya Pradesh
45HDHarda (3)X  08:53+3:0408:55+3:062m--2-7.464289mWCRHarda, Madhya Pradesh
46PAL»Palasner (2)»X  09:02+3:1109:03+3:121m--20.039296mWCRHarda, Madhya Pradesh
47MUOMasangaon (2)XO  09:12+3:0909:13+3:091m--25.912303mWCRSH 15, Madhya Pradesh
48BRIBhiringi (2)  09:39+2:5409:40+3:041m--211.1100294mWCRSH 15, Madhya Pradesh
49KROKurawan (2)X  09:44+3:0009:45+3:001m--217.829297mWCRSH 15, Madhya Pradesh
50KKNKhirkiya (2)O  09:58+3:0210:00+3:032m1224.139281mWCRSH 15, Madhya Pradesh
51DRHIDagarhkeri (2)XO  10:17+2:5610:18+2:581m--235.120274mWCRState Highway 15, Madhya Pradesh
52BRUDBarud (2)X  10:47+2:4210:48+2:441m--244.676273mWCRKhandwa, Madhya Pradesh
53CAERChhanera (2)XO  10:56+2:4410:58+2:472m--254.821283mWCRChhanera, Madhya Pradesh
54CKKDCharkheda Khurd (2)  11:17+2:3811:18+2:411m--261.623274mWCRKhandwa, Madhya Pradesh
55SGBJSurgaon Banjari (2)  11:47+2:2511:48+2:281m--272.771298mWCRKhandwa, Madhya Pradesh
56TLVTalvadiya (2)O  11:58+2:2912:00+2:302m--284.556308mWCRKhandwa, Madhya Pradesh
57MTAMathela (2)XO  12:09+2:2612:10+2:271m--292.96322mWCRKhandwa, Madhya Pradesh
58KNWKhandwa Junction (5)  13:20+2:1113:30+2:1210m--2100.244310mCRKhandwa, Madhya Pradesh
59BRGJBargaon Gujar (2)X  13:37+1:5013:38+1:511m--2105.460316mCRKhandwa, Madhya Pradesh
60BMABagmar (2)X  13:44+1:5013:45+1:531m--2111.466335mCRState Highway 27, Madhya Pradesh
61KDKKohdad (2)X  13:49+1:5513:50+1:551m--2115.857344mCRState Highway 15, Madhya Pradesh
62DGNDongargaon (2)  13:58+1:5513:59+1:581m--2123.358373mCRBorgaon, Madhya Pradesh
63SXASagphata (2)  14:07+1:5814:08+1:581m--2131.151350mCRKhandwa, Madhya Pradesh
64MWAMandwa (2)X  14:15+2:0014:16+2:011m--2137.044317mCRState Highway 27, Madhya Pradesh
65NPNRNepanagar (2)  14:24+2:0314:26+2:032m--2142.953289mCRState Highway 27, Madhya Pradesh
66CDIChandni (2)  14:34+2:0014:35+2:001m--2149.977276mCRNepanagar Rd, Madhya Pradesh
67AGQAsirgarh Road (2)X  14:43+2:0114:44+2:021m--2160.267259mCRState Highway 27, Madhya Pradesh
68BAUBurhanpur (2)X  14:52+2:0414:55+2:043m12169.162269mCRBurhanpur, Madhya Pradesh
69WGAWaghodaX  15:05+2:0315:06+2:061m--2179.460259mCRChorwad, Maharashtra
70RVRaver (2)X  15:16+2:1515:18+2:152m--2189.368242mCRJalgaon, Maharashtra
71NBNimbhoraX  15:27+2:0515:28+2:081m--2199.558229mCRJalgaon, Maharashtra
72SAVSavda (2)X  15:37+2:0815:38+2:081m--2208.258220mCRSavda, Maharashtra
73DSKDuskheda (2)X  15:47+2:0915:48+2:111m--2216.96213mCRDuskheda Station, Maharashtra
74BSL•Bhusaval Junction (8)•  17:00+1:57-62223.6-208mCRBhusaval 425201, Maharashtra
Scroll to Top
Scroll to Bottom